WAT378 LICT-LMML

Flight info

Callsign WAT378
Flight time 0h 37m
Altitude 19000
Route PAL L12 GZO
Aircraft B738/M-SDE2E3FGHIRWXY/LB1

Departure

Time 2026-04-27 13:10
Airport Vincenzo Florio Airport Trapani-Birgi (LICT)

Arrival

Time 2026-04-27 13:47
Airport Malta International Airport (LMML)
Time Latitude Longitude Altitude Speed Heading
2026-04-27 12:57 37.90204 12.49712 38 ft 0 kts 277°
2026-04-27 13:04 37.90205 12.49711 37 ft 0 kts 302°
2026-04-27 13:05 37.90217 12.49714 37 ft 2 kts 27°
2026-04-27 13:05 37.90230 12.49723 37 ft 1 kts 27°
2026-04-27 13:05 37.90237 12.49728 37 ft 0 kts 27°
2026-04-27 13:05 37.90259 12.49728 37 ft 7 kts 359°
2026-04-27 13:06 37.90309 12.49732 37 ft 8 kts
2026-04-27 13:06 37.90363 12.49718 37 ft 11 kts 317°
2026-04-27 13:06 37.90417 12.49659 36 ft 4 kts 360°
2026-04-27 13:06 37.90456 12.49685 36 ft 6 kts 33°
2026-04-27 13:07 37.90461 12.49689 36 ft 0 kts 32°
2026-04-27 13:08 37.90461 12.49690 36 ft 0 kts 32°
2026-04-27 13:08 37.90511 12.49729 36 ft 12 kts 32°
2026-04-27 13:08 37.90571 12.49724 36 ft 9 kts 317°
2026-04-27 13:09 37.90606 12.49670 36 ft 0 kts 306°
2026-04-27 13:09 37.90610 12.49662 35 ft 7 kts 306°
2026-04-27 13:09 37.90751 12.49429 33 ft 66 kts 307°
2026-04-27 13:09 37.91163 12.48756 28 ft 126 kts 307°
2026-04-27 13:10 37.91803 12.47715 113 ft 163 kts 308°
2026-04-27 13:10 37.92527 12.46623 722 ft 163 kts 311°
2026-04-27 13:10 37.93479 12.45803 1193 ft 172 kts 350°
2026-04-27 13:10 37.94655 12.45816 1798 ft 170 kts
2026-04-27 13:11 37.95855 12.45806 2292 ft 175 kts 355°
2026-04-27 13:11 37.97076 12.45624 2798 ft 179 kts 352°
2026-04-27 13:11 37.98301 12.45211 3292 ft 183 kts 335°
2026-04-27 13:11 37.99412 12.44477 3855 ft 182 kts 330°
2026-04-27 13:12 38.00531 12.43724 4391 ft 182 kts 333°
2026-04-27 13:12 38.01665 12.43005 4921 ft 183 kts 333°
2026-04-27 13:12 38.02793 12.42304 5470 ft 183 kts 333°
2026-04-27 13:12 38.03976 12.41565 5858 ft 193 kts 333°
2026-04-27 13:13 38.05231 12.40778 6188 ft 208 kts 333°
2026-04-27 13:13 38.06602 12.39962 6550 ft 224 kts 340°
2026-04-27 13:13 38.08195 12.39848 6906 ft 241 kts 14°
2026-04-27 13:13 38.09685 12.40949 7279 ft 260 kts 46°
2026-04-27 13:14 38.10770 12.42868 7691 ft 275 kts 57°
2026-04-27 13:14 38.11750 12.45013 8205 ft 286 kts 58°
2026-04-27 13:14 38.12756 12.47232 8858 ft 292 kts 57°
2026-04-27 13:14 38.13719 12.49495 9553 ft 297 kts 64°
2026-04-27 13:15 38.14287 12.52060 10244 ft 305 kts 83°
2026-04-27 13:15 38.14141 12.54796 10724 ft 320 kts 101°
2026-04-27 13:15 38.13612 12.57578 11166 ft 334 kts 103°
2026-04-27 13:15 38.13010 12.60501 11569 ft 350 kts 103°
2026-04-27 13:16 38.12385 12.63570 11993 ft 364 kts 103°
2026-04-27 13:16 38.11792 12.66696 12641 ft 371 kts 102°
2026-04-27 13:16 38.11243 12.69925 13317 ft 377 kts 101°
2026-04-27 13:16 38.10715 12.73202 14048 ft 381 kts 101°
2026-04-27 13:17 38.10185 12.76534 14853 ft 385 kts 101°
2026-04-27 13:17 38.09651 12.79863 15636 ft 387 kts 101°
2026-04-27 13:17 38.09110 12.83209 16399 ft 391 kts 101°
2026-04-27 13:17 38.08562 12.86573 17123 ft 394 kts 101°
2026-04-27 13:18 38.07999 12.90002 17858 ft 397 kts 101°
2026-04-27 13:18 38.07431 12.93444 18542 ft 401 kts 101°
2026-04-27 13:18 38.06852 12.96932 19039 ft 407 kts 101°
2026-04-27 13:18 38.06264 13.00469 19114 ft 411 kts 101°
2026-04-27 13:19 38.05676 13.03988 19124 ft 408 kts 101°
2026-04-27 13:19 38.05064 13.07517 19124 ft 408 kts 103°
2026-04-27 13:19 38.04222 13.11008 19133 ft 409 kts 111°
2026-04-27 13:19 38.02906 13.14191 19145 ft 408 kts 124°
2026-04-27 13:20 38.01120 13.16935 19145 ft 406 kts 135°
2026-04-27 13:20 37.98961 13.19303 19155 ft 406 kts 143°
2026-04-27 13:20 37.96630 13.21288 19151 ft 404 kts 151°
2026-04-27 13:20 37.94120 13.22924 19157 ft 404 kts 156°
2026-04-27 13:21 37.91536 13.24342 19153 ft 403 kts 159°
2026-04-27 13:21 37.88902 13.25681 19154 ft 404 kts 160°
2026-04-27 13:21 37.86257 13.26998 19150 ft 404 kts 160°
2026-04-27 13:21 37.83629 13.28311 19146 ft 404 kts 160°
2026-04-27 13:22 37.81007 13.29636 19144 ft 405 kts 160°
2026-04-27 13:22 37.78387 13.30975 19141 ft 405 kts 159°
2026-04-27 13:22 37.75775 13.32322 19139 ft 404 kts 159°
2026-04-27 13:22 37.73160 13.33681 19138 ft 405 kts 159°
2026-04-27 13:23 37.70541 13.35047 19136 ft 406 kts 159°
2026-04-27 13:23 37.67922 13.36417 19132 ft 405 kts 159°
2026-04-27 13:23 37.65316 13.37781 19133 ft 406 kts 159°
2026-04-27 13:23 37.62686 13.39158 19128 ft 407 kts 159°
2026-04-27 13:24 37.60055 13.40535 19127 ft 406 kts 159°
2026-04-27 13:24 37.57460 13.41893 19125 ft 407 kts 159°
2026-04-27 13:24 37.54824 13.43273 19125 ft 407 kts 159°
2026-04-27 13:24 37.52205 13.44642 19122 ft 406 kts 159°
2026-04-27 13:25 37.49569 13.46018 19120 ft 406 kts 159°
2026-04-27 13:25 37.46942 13.47389 19122 ft 407 kts 159°
2026-04-27 13:25 37.44318 13.48757 19118 ft 407 kts 159°
2026-04-27 13:25 37.41695 13.50124 19117 ft 408 kts 159°
2026-04-27 13:26 37.39051 13.51500 19116 ft 407 kts 159°
2026-04-27 13:26 37.36414 13.52871 19117 ft 408 kts 159°
2026-04-27 13:26 37.33784 13.54238 19116 ft 408 kts 159°
2026-04-27 13:26 37.31155 13.55603 19116 ft 408 kts 159°
2026-04-27 13:27 37.28481 13.56991 19115 ft 408 kts 159°
2026-04-27 13:27 37.25849 13.58352 19117 ft 409 kts 160°
2026-04-27 13:27 37.23210 13.59712 19115 ft 409 kts 160°
2026-04-27 13:27 37.20563 13.61074 19115 ft 409 kts 160°
2026-04-27 13:28 37.17921 13.62432 19117 ft 409 kts 160°
2026-04-27 13:28 37.15268 13.63794 19116 ft 409 kts 160°
2026-04-27 13:28 37.12649 13.65137 19117 ft 409 kts 161°
2026-04-27 13:28 37.09985 13.66505 19115 ft 409 kts 161°
2026-04-27 13:29 37.07354 13.67860 19112 ft 409 kts 160°
2026-04-27 13:29 37.04700 13.69228 19113 ft 408 kts 160°
2026-04-27 13:29 37.02063 13.70588 19116 ft 409 kts 161°
2026-04-27 13:29 36.99417 13.71951 19109 ft 409 kts 161°
2026-04-27 13:30 36.96767 13.73315 19113 ft 409 kts 161°
2026-04-27 13:30 36.94139 13.74667 19112 ft 408 kts 161°
2026-04-27 13:30 36.91495 13.76025 19112 ft 409 kts 161°
2026-04-27 13:30 36.88853 13.77381 19112 ft 409 kts 161°
2026-04-27 13:31 36.86199 13.78743 19111 ft 410 kts 161°
2026-04-27 13:31 36.83556 13.80097 19111 ft 410 kts 161°
2026-04-27 13:31 36.80909 13.81452 19110 ft 410 kts 161°
2026-04-27 13:31 36.78277 13.82800 19108 ft 409 kts 161°
2026-04-27 13:32 36.75658 13.84141 18715 ft 408 kts 161°
2026-04-27 13:32 36.73087 13.85458 18532 ft 394 kts 161°
2026-04-27 13:32 36.70564 13.86752 18373 ft 380 kts 161°
2026-04-27 13:32 36.68152 13.87988 18101 ft 371 kts 161°
2026-04-27 13:33 36.65800 13.89187 17610 ft 368 kts 161°
2026-04-27 13:33 36.63423 13.90398 16905 ft 364 kts 161°
2026-04-27 13:33 36.61093 13.91583 16155 ft 362 kts 161°
2026-04-27 13:33 36.58781 13.92757 15421 ft 360 kts 161°
2026-04-27 13:34 36.56478 13.93925 14720 ft 356 kts 161°
2026-04-27 13:34 36.55736 13.94302 14485 ft 354 kts 161°
2026-04-27 13:34 36.53490 13.95443 13777 ft 351 kts 161°
2026-04-27 13:34 36.51225 13.96593 13119 ft 346 kts 161°
2026-04-27 13:35 36.49080 13.97906 12587 ft 341 kts 148°
2026-04-27 13:35 36.47228 13.99691 12134 ft 332 kts 141°
2026-04-27 13:35 36.45540 14.01576 11707 ft 323 kts 139°
2026-04-27 13:35 36.43892 14.03474 11305 ft 326 kts 139°
2026-04-27 13:36 36.42188 14.05442 10874 ft 339 kts 139°
2026-04-27 13:36 36.40475 14.07414 10497 ft 334 kts 139°
2026-04-27 13:36 36.38816 14.09323 10310 ft 314 kts 139°
2026-04-27 13:36 36.37253 14.11126 10216 ft 294 kts 139°
2026-04-27 13:37 36.35795 14.12811 10004 ft 281 kts 139°
2026-04-27 13:37 36.34362 14.14469 9642 ft 286 kts 139°
2026-04-27 13:37 36.32874 14.16185 9263 ft 293 kts 139°
2026-04-27 13:37 36.31343 14.17798 8850 ft 288 kts 149°
2026-04-27 13:38 36.29522 14.18812 8261 ft 285 kts 165°
2026-04-27 13:38 36.27625 14.19469 7744 ft 282 kts 167°
2026-04-27 13:38 36.25756 14.20082 7493 ft 276 kts 167°
2026-04-27 13:38 36.23871 14.20715 7182 ft 280 kts 166°
2026-04-27 13:39 36.21999 14.21350 6769 ft 275 kts 166°
2026-04-27 13:39 36.20170 14.21969 6378 ft 268 kts 165°
2026-04-27 13:39 36.18412 14.22561 6074 ft 261 kts 165°
2026-04-27 13:39 36.16640 14.23155 5703 ft 262 kts 165°
2026-04-27 13:40 36.14885 14.23743 5378 ft 261 kts 165°
2026-04-27 13:40 36.13116 14.24335 5047 ft 260 kts 165°
2026-04-27 13:40 36.11375 14.24917 4717 ft 258 kts 165°
2026-04-27 13:40 36.09643 14.25496 4497 ft 253 kts 165°
2026-04-27 13:41 36.07977 14.26053 4422 ft 241 kts 165°
2026-04-27 13:41 36.06402 14.26579 4346 ft 231 kts 165°
2026-04-27 13:41 36.04884 14.27087 4270 ft 220 kts 165°
2026-04-27 13:41 36.03419 14.27576 4208 ft 217 kts 165°
2026-04-27 13:42 36.01951 14.28194 4139 ft 226 kts 153°
2026-04-27 13:42 36.00637 14.29302 3958 ft 227 kts 137°
2026-04-27 13:42 35.99519 14.30661 3763 ft 222 kts 133°
2026-04-27 13:42 35.98459 14.32039 3567 ft 216 kts 134°
2026-04-27 13:43 35.97413 14.33347 3371 ft 209 kts 135°
2026-04-27 13:43 35.96410 14.34581 3202 ft 200 kts 135°
2026-04-27 13:43 35.95436 14.35785 2942 ft 197 kts 135°
2026-04-27 13:43 35.94477 14.36974 2684 ft 195 kts 135°
2026-04-27 13:44 35.93519 14.38161 2417 ft 193 kts 135°
2026-04-27 13:44 35.92600 14.39299 2162 ft 180 kts 135°
2026-04-27 13:44 35.91741 14.40361 1928 ft 171 kts 135°
2026-04-27 13:44 35.90922 14.41373 1723 ft 161 kts 135°
2026-04-27 13:45 35.90155 14.42321 1521 ft 147 kts 136°
2026-04-27 13:45 35.89426 14.43218 1315 ft 149 kts 136°
2026-04-27 13:45 35.88696 14.44115 1117 ft 147 kts 135°
2026-04-27 13:45 35.87968 14.45023 927 ft 148 kts 136°
2026-04-27 13:46 35.87236 14.45919 727 ft 145 kts 135°
2026-04-27 13:46 35.86525 14.46799 531 ft 144 kts 136°
2026-04-27 13:46 35.85824 14.47665 345 ft 144 kts 135°
2026-04-27 13:46 35.85144 14.48503 262 ft 114 kts 135°
2026-04-27 13:47 35.84742 14.49001 255 ft 59 kts 135°
2026-04-27 13:47 35.84498 14.49317 252 ft 37 kts 122°
2026-04-27 13:47 35.84450 14.49494 251 ft 11 kts 100°
2026-04-27 13:47 35.84466 14.49562 250 ft 4 kts 33°
2026-04-27 13:48 35.84498 14.49570 250 ft 4 kts
2026-04-27 13:48 35.84528 14.49561 250 ft 4 kts 332°
2026-04-27 13:48 35.84557 14.49539 250 ft 6 kts 334°
2026-04-27 13:48 35.84611 14.49558 250 ft 9 kts 42°
2026-04-27 13:49 35.84666 14.49575 250 ft 8 kts 341°
2026-04-27 13:49 35.84716 14.49539 250 ft 8 kts 319°
2026-04-27 13:49 35.84784 14.49455 251 ft 15 kts 313°
2026-04-27 13:49 35.84842 14.49397 251 ft 6 kts 355°
2026-04-27 13:50 35.84889 14.49396 251 ft 6 kts
2026-04-27 13:50 35.84907 14.49397 251 ft 0 kts